Orbital Elements at Epoch 2459200.5 (2020-Dec-17.0) TDB
Reference: JPL 22 (heliocentric ecliptic J2000)
Element | Value | Uncertainty (1-sigma) | Units |
e | .2110740776187904 | 4.0589e-08 | |
a | 2.616837110993152 | 1.3026e-08 | au |
q | 2.064490631511652 | 1.0205e-07 | au |
i | 8.084005831973611 | 4.1525e-06 | deg |
node | 121.2148604156592 | 2.7547e-05 | deg |
peri | 333.9047398248159 | 2.9243e-05 | deg |
M | 164.6944042369919 | 1.1478e-05 | deg |
tp | 2458493.141128184456 (2019-Jan-09.64112818) | 4.6055e-05 | TDB |
period | 1546.192143159647 4.23 | 1.1545e-05 3.161e-08 | d yr |
n | .2328300538795516 | 1.7384e-09 | deg/d |
Q | 3.169183590474652 | 1.5775e-08 | au |
|
| | Orbit Determination Parameters
Additional Information
|